YO6IKB-10 Weather Reports


Display with metric or nautical units.
time (UTC)temp
F
wind
direction
speed
MPH
gust
MPH
rain 1hr
in
rain 24hr
in
rain mn
in
humidity
%
barometer
mb
20260506032844 49 67 0.0 0.0 0.00 0.00 0.00 79 1010.9
20260506032344 48 67 0.0 1.0 0.00 0.00 0.00 79 1010.8
20260506031844 48 67 0.0 0.0 0.00 0.00 0.00 79 1010.8
20260506031343 48 67 0.0 0.0 0.00 0.00 0.00 78 1010.8
20260506030843 48 67 0.0 0.0 0.00 0.00 0.00 78 1010.8
20260506030343 48 67 0.0 0.0 0.00 0.00 0.00 77 1010.7
20260506025842 48 67 0.0 0.0 0.00 0.00 0.00 78 1010.7
20260506025342 49 67 0.0 0.0 0.00 0.00 0.00 77 1010.7
20260506024842 49 67 0.0 0.0 0.00 0.00 0.00 76 1010.6
20260506024342 49 67 0.0 0.0 0.00 0.00 0.00 76 1010.6
20260506023841 49 67 0.0 0.0 0.00 0.00 0.00 77 1010.6
20260506023341 49 67 0.0 0.0 0.00 0.00 0.00 77 1010.6
20260506022841 49 67 0.0 0.0 0.00 0.00 0.00 77 1010.6
20260506022340 50 67 0.0 0.0 0.00 0.00 0.00 77 1010.6
20260506021840 50 67 0.0 2.0 0.00 0.00 0.00 77 1010.5
20260506021340 50 67 2.0 3.0 0.00 0.00 0.00 77 1010.6
20260506020840 50 67 1.0 2.0 0.00 0.00 0.00 77 1010.6
20260506020339 50 67 0.0 1.0 0.00 0.00 0.00 76 1010.6
20260506015839 50 67 0.0 1.0 0.00 0.00 0.00 76 1010.5
20260506015339 50 67 0.0 2.0 0.00 0.00 0.00 76 1010.4
20260506014838 50 90 0.0 0.0 0.00 0.00 0.00 75 1010.5
20260506014338 50 90 0.0 0.0 0.00 0.00 0.00 75 1010.4
20260506013838 50 90 0.0 2.0 0.00 0.00 0.00 75 1010.4
20260506013337 50 90 0.0 1.0 0.00 0.00 0.00 74 1010.6
20260506012837 50 90 0.0 3.0 0.00 0.00 0.00 73 1010.5
20260506012337 51 67 0.0 2.0 0.00 0.00 0.00 73 1010.5
20260506011837 51 67 0.0 3.0 0.00 0.00 0.00 72 1010.5
20260506011336 51 67 2.0 3.0 0.00 0.00 0.00 72 1010.5
20260506010836 51 67 0.0 2.0 0.00 0.00 0.00 72 1010.5
20260506010336 51 67 0.0 1.0 0.00 0.00 0.00 71 1010.5
20260506005835 51 45 0.0 0.0 0.00 0.00 0.00 71 1010.5
20260506005335 51 45 0.0 0.0 0.00 0.00 0.00 71 1010.4
20260506004835 51 45 0.0 1.0 0.00 0.00 0.00 71 1010.4
20260506004335 51 45 1.0 1.0 0.00 0.00 0.00 70 1010.3
20260506003834 51 45 1.0 1.0 0.00 0.00 0.00 70 1010.3
20260506003334 52 45 0.0 0.0 0.00 0.00 0.00 70 1010.3
20260506002834 52 45 0.0 0.0 0.00 0.00 0.00 70 1010.2
20260506002333 52 45 0.0 1.0 0.00 0.00 0.00 70 1010.2
20260506001833 52 45 0.0 0.0 0.00 0.00 0.00 70 1010.1
20260506001333 52 45 0.0 0.0 0.00 0.00 0.00 70 1009.9
20260506000833 52 45 0.0 1.0 0.00 0.00 0.00 70 1010.0
20260506000332 53 45 0.0 3.0 0.00 0.00 0.00 70 1009.9
20260505235832 53 45 2.0 2.0 0.00 0.00 0.00 70 1009.9
20260505235332 53 45 0.0 0.0 0.00 0.00 0.00 70 1009.9
20260505234832 53 45 0.0 0.0 0.00 0.00 0.00 70 1009.8
20260505234331 53 45 0.0 2.0 0.00 0.00 0.00 70 1009.8
20260505233831 53 45 2.0 3.0 0.00 0.00 0.00 70 1009.8
20260505233330 53 45 2.0 3.0 0.00 0.00 0.00 69 1009.9
20260505232830 53 45 0.0 0.0 0.00 0.00 0.00 69 1009.9
20260505232330 54 45 2.0 3.0 0.00 0.00 0.00 68 1009.9
20260505231830 54 45 0.0 1.0 0.00 0.00 0.00 68 1010.0
20260505231329 54 45 0.0 1.0 0.00 0.00 0.00 68 1010.0
20260505230829 55 45 0.0 2.0 0.00 0.00 0.00 67 1010.0
20260505230329 55 45 0.0 2.0 0.00 0.00 0.00 67 1010.1
20260505225828 55 67 1.0 9.0 0.00 0.00 0.00 68 1009.9
20260505225328 55 45 3.0 3.0 0.00 0.00 0.00 68 1010.0
20260505224828 55 45 1.0 3.0 0.00 0.00 0.00 67 1009.9
20260505224327 55 45 1.0 3.0 0.00 0.00 0.00 67 1010.0
20260505223827 55 45 1.0 2.0 0.00 0.00 0.00 66 1009.9
20260505223327 55 45 2.0 3.0 0.00 0.00 0.00 66 1009.9
20260505222827 56 45 2.0 4.0 0.00 0.00 0.00 66 1009.9
20260505222326 56 45 2.0 3.0 0.00 0.00 0.00 66 1009.8
20260505221826 56 67 2.0 3.0 0.00 0.00 0.00 66 1009.9
20260505221326 56 45 2.0 4.0 0.00 0.00 0.00 66 1009.8
20260505220825 56 45 2.0 4.0 0.00 0.00 0.00 66 1010.0
20260505220325 56 67 0.0 2.0 0.00 0.00 0.00 65 1010.0
20260505215825 57 67 1.0 1.0 0.00 0.00 0.00 65 1010.0
20260505215325 57 67 0.0 3.0 0.00 0.00 0.00 65 1009.9
20260505214824 57 67 1.0 2.0 0.00 0.00 0.00 64 1009.9
20260505214324 57 45 1.0 3.0 0.00 0.00 0.00 64 1009.9
20260505213824 57 67 0.0 2.0 0.00 0.00 0.00 64 1009.9
20260505213323 57 67 0.0 4.0 0.00 0.00 0.00 64 1010.0
20260505212823 57 45 2.0 8.0 0.00 0.00 0.00 64 1010.0
20260505212323 58 45 1.0 3.0 0.00 0.00 0.00 63 1010.1
20260505211823 58 45 0.0 3.0 0.00 0.00 0.00 63 1010.0
20260505211322 59 22 0.0 4.0 0.00 0.00 0.00 62 1010.0
20260505210822 59 22 3.0 6.0 0.00 0.00 0.00 63 1010.0
20260505210322 59 45 0.0 3.0 0.00 0.00 0.00 62 1010.0
20260505205821 59 45 2.0 3.0 0.00 0.00 0.00 62 1009.9
20260505205321 59 67 0.0 4.0 0.00 0.00 0.00 62 1009.8
20260505204821 59 67 0.0 3.0 0.00 0.00 0.00 62 1009.8
20260505204320 59 67 3.0 4.0 0.00 0.00 0.00 61 1009.8
20260505203820 59 45 0.0 2.0 0.00 0.00 0.00 60 1009.9
20260505203320 60 45 2.0 2.0 0.00 0.00 0.00 58 1009.9
20260505202820 61 22 0.0 4.0 0.00 0.00 0.00 56 1009.9
20260505202319 61 337 3.0 3.0 0.00 0.00 0.00 54 1009.8
20260505201819 62 202 0.0 3.0 0.00 0.00 0.00 53 1009.7
20260505201319 62 202 0.0 2.0 0.00 0.00 0.00 53 1009.7
20260505200818 62 202 2.0 2.0 0.00 0.00 0.00 53 1009.7
20260505200318 63 180 0.0 1.0 0.00 0.00 0.00 52 1009.5
20260505195818 62 180 0.0 1.0 0.00 0.00 0.00 52 1009.4
20260505195318 62 180 0.0 1.0 0.00 0.00 0.00 52 1009.5
20260505194817 62 180 0.0 0.0 0.00 0.00 0.00 52 1009.5
20260505194317 63 180 0.0 0.0 0.00 0.00 0.00 51 1009.4
20260505193817 63 180 0.0 1.0 0.00 0.00 0.00 51 1009.4
20260505193316 63 180 0.0 1.0 0.00 0.00 0.00 51 1009.5
20260505192816 63 202 0.0 0.0 0.00 0.00 0.00 51 1009.5
20260505192316 63 202 0.0 0.0 0.00 0.00 0.00 51 1009.4
20260505191815 63 202 0.0 2.0 0.00 0.00 0.00 50 1009.4
20260505191315 64 202 0.0 0.0 0.00 0.00 0.00 50 1009.4
20260505190815 64 202 0.0 0.0 0.00 0.00 0.00 50 1009.3
20260505190315 64 202 0.0 2.0 0.00 0.00 0.00 49 1009.4
20260505185814 64 202 0.0 2.0 0.00 0.00 0.00 49 1009.4
20260505185314 65 202 0.0 1.0 0.00 0.00 0.00 48 1009.5
20260505184814 65 202 0.0 0.0 0.00 0.00 0.00 48 1009.4
20260505184313 65 202 0.0 0.0 0.00 0.00 0.00 47 1009.2
20260505183813 66 202 0.0 0.0 0.00 0.00 0.00 47 1009.2
20260505183313 66 202 0.0 0.0 0.00 0.00 0.00 47 1009.2
20260505182813 66 202 0.0 0.0 0.00 0.00 0.00 47 1009.1
20260505182312 66 202 0.0 1.0 0.00 0.00 0.00 47 1009.2
20260505181812 66 202 0.0 3.0 0.00 0.00 0.00 47 1009.0
20260505181312 67 202 1.0 5.0 0.00 0.00 0.00 47 1009.0
20260505180811 67 90 0.0 3.0 0.00 0.00 0.00 47 1008.8
20260505180311 67 90 3.0 4.0 0.00 0.00 0.00 47 1008.6
20260505175811 67 90 0.0 3.0 0.00 0.00 0.00 47 1008.4
20260505175310 68 67 3.0 3.0 0.00 0.00 0.00 46 1008.3
20260505174810 68 90 0.0 1.0 0.00 0.00 0.00 45 1008.5
20260505174310 69 90 0.0 0.0 0.00 0.00 0.00 45 1008.3
20260505173810 69 90 0.0 6.0 0.00 0.00 0.00 45 1008.3
20260505173309 69 67 3.0 6.0 0.00 0.00 0.00 44 1008.3
20260505172809 71 67 6.0 11.0 0.00 0.00 0.00 43 1008.3
20260505172309 72 67 6.0 9.0 0.00 0.00 0.00 39 1008.2
20260505171808 73 337 0.0 1.0 0.00 0.00 0.00 37 1008.2
20260505171308 74 292 0.0 0.0 0.00 0.00 0.00 38 1008.2
20260505170808 74 292 0.0 0.0 0.00 0.00 0.00 38 1008.2
20260505170308 74 292 0.0 0.0 0.00 0.00 0.00 38 1008.2
20260505165807 75 292 0.0 2.0 0.00 0.00 0.00 37 1008.2
20260505165307 75 292 0.0 2.0 0.00 0.00 0.00 37 1008.2
20260505164807 75 292 0.0 3.0 0.00 0.00 0.00 37 1008.2
20260505164306 75 292 0.0 4.0 0.00 0.00 0.00 37 1008.2
20260505163806 75 292 0.0 2.0 0.00 0.00 0.00 37 1008.2
20260505163306 75 292 0.0 4.0 0.00 0.00 0.00 36 1008.2
20260505162805 75 292 0.0 4.0 0.00 0.00 0.00 36 1008.2
20260505162307 75 292 0.0 4.0 0.00 0.00 0.00 37 1008.2
20260505161805 75 292 0.0 1.0 0.00 0.00 0.00 36 1008.2
20260505161305 76 315 0.0 4.0 0.00 0.00 0.00 34 1008.2
20260505160804 76 315 4.0 4.0 0.00 0.00 0.00 34 1008.2
20260505160304 76 315 0.0 1.0 0.00 0.00 0.00 33 1008.2
20260505153302 83 315 0.0 7.0 0.00 0.00 0.00 30 1008.3
20260505152802 85 315 0.0 3.0 0.00 0.00 0.00 30 1008.2
20260505152304 87 225 0.0 9.0 0.00 0.00 0.00 29 1008.3
20260505151801 88 180 7.0 10.0 0.00 0.00 0.00 28 1008.3
20260505151301 89 292 0.0 10.0 0.00 0.00 0.00 28 1008.4
20260505150801 88 292 0.0 2.0 0.00 0.00 0.00 29 1008.4
20260505150301 87 292 1.0 4.0 0.00 0.00 0.00 29 1008.6
20260505140257 79 292 1.0 6.0 0.00 0.00 0.00 34 1009.5
20260505130253 80 22 0.0 5.0 0.00 0.00 0.00 31 1010.2
20260505124753 78 292 5.0 6.0 0.00 0.00 0.00 32 1010.4
20260505124252 79 0 0.0 9.0 0.00 0.00 0.00 31 1010.4
20260505123752 79 292 0.0 9.0 0.00 0.00 0.00 32 1010.5
20260505123252 80 292 0.0 4.0 0.00 0.00 0.00 33 1010.6
20260505122751 79 292 2.0 5.0 0.00 0.00 0.00 34 1010.6
20260505122251 79 45 0.0 4.0 0.00 0.00 0.00 32 1010.7
20260505121751 80 0 1.0 5.0 0.00 0.00 0.00 32 1010.7
20260505121251 80 292 5.0 5.0 0.00 0.00 0.00 31 1010.8
20260505120750 81 315 0.0 6.0 0.00 0.00 0.00 33 1010.8
20260505120250 80 292 2.0 4.0 0.00 0.00 0.00 34 1010.9
20260505115750 80 292 0.0 4.0 0.00 0.00 0.00 32 1011.0
20260505115249 80 292 3.0 6.0 0.00 0.00 0.00 34 1011.1
20260505114749 78 292 1.0 2.0 0.00 0.00 0.00 34 1011.2
20260505114249 78 337 0.0 4.0 0.00 0.00 0.00 33 1011.2
20260505113749 80 45 0.0 5.0 0.00 0.00 0.00 31 1011.4
20260505113248 81 0 4.0 6.0 0.00 0.00 0.00 34 1011.3
20260505112748 80 292 1.0 6.0 0.00 0.00 0.00 36 1011.5
20260505112248 79 315 6.0 6.0 0.00 0.00 0.00 34 1011.5
20260505111747 78 315 1.0 6.0 0.00 0.00 0.00 34 1011.5
20260505111247 79 337 2.0 7.0 0.00 0.00 0.00 32 1011.5
20260505110747 80 45 0.0 7.0 0.00 0.00 0.00 34 1011.6
20260505110246 79 202 0.0 9.0 0.00 0.00 0.00 36 1011.6
20260505101744 79 292 2.0 8.0 0.00 0.00 0.00 40 1012.1
20260505101244 78 292 0.0 6.0 0.00 0.00 0.00 40 1012.1
20260505100743 78 292 2.0 4.0 0.00 0.00 0.00 38 1012.1
20260505100243 78 292 0.0 9.0 0.00 0.00 0.00 41 1012.2
20260505095743 77 225 6.0 6.0 0.00 0.00 0.00 39 1012.3
20260505095242 79 337 2.0 4.0 0.00 0.00 0.00 39 1012.3
20260505094742 79 247 3.0 6.0 0.00 0.00 0.00 41 1012.5
20260505094242 78 292 0.0 2.0 0.00 0.00 0.00 41 1012.4
20260505093742 78 292 0.0 4.0 0.00 0.00 0.00 41 1012.5
20260505093241 78 315 0.0 4.0 0.00 0.00 0.00 40 1012.6
20260505092741 78 292 0.0 9.0 0.00 0.00 0.00 42 1012.6
20260505092241 78 292 4.0 4.0 0.00 0.00 0.00 42 1012.7
20260505091740 78 247 4.0 4.0 0.00 0.00 0.00 42 1012.7
20260505091240 77 202 0.0 7.0 0.00 0.00 0.00 43 1012.8
20260505090740 76 247 0.0 4.0 0.00 0.00 0.00 43 1012.9
20260505090239 76 292 0.0 4.0 0.00 0.00 0.00 44 1012.9
20260505085739 75 315 0.0 10.0 0.00 0.00 0.00 42 1012.9
20260505085239 76 337 2.0 5.0 0.00 0.00 0.00 42 1012.9
20260505084739 75 247 1.0 2.0 0.00 0.00 0.00 44 1013.0
20260505084238 76 292 0.0 4.0 0.00 0.00 0.00 42 1013.0
20260505083738 76 292 1.0 8.0 0.00 0.00 0.00 43 1013.1
20260505083238 76 315 3.0 7.0 0.00 0.00 0.00 44 1013.1
20260505082737 75 315 0.0 6.0 0.00 0.00 0.00 43 1013.1
20260505082237 76 247 0.0 7.0 0.00 0.00 0.00 43 1013.2
20260505081737 75 292 0.0 2.0 0.00 0.00 0.00 43 1013.3
20260505081237 74 292 0.0 4.0 0.00 0.00 0.00 44 1013.3
20260505080736 74 247 0.0 4.0 0.00 0.00 0.00 44 1013.2
20260505080236 73 315 0.0 3.0 0.00 0.00 0.00 46 1013.3
20260505075736 71 315 0.0 4.0 0.00 0.00 0.00 46 1013.4
20260505075235 69 292 4.0 4.0 0.00 0.00 0.00 48 1013.3
20260505074735 68 22 0.0 2.0 0.00 0.00 0.00 49 1013.4
20260505074235 68 22 2.0 2.0 0.00 0.00 0.00 50 1013.5
20260505073734 68 22 1.0 2.0 0.00 0.00 0.00 50 1013.5
20260505073234 67 45 0.0 2.0 0.00 0.00 0.00 51 1013.5
20260505072734 67 0 1.0 2.0 0.00 0.00 0.00 52 1013.5
20260505072234 66 22 0.0 1.0 0.00 0.00 0.00 54 1013.6
20260505071733 65 45 0.0 2.0 0.00 0.00 0.00 55 1013.6
20260505071233 64 22 0.0 2.0 0.00 0.00 0.00 57 1013.6
20260505070733 63 45 1.0 2.0 0.00 0.00 0.00 57 1013.7
20260505070232 63 45 0.0 3.0 0.00 0.00 0.00 58 1013.6
20260505065732 62 45 0.0 2.0 0.00 0.00 0.00 59 1013.6
20260505065232 62 45 0.0 3.0 0.00 0.00 0.00 58 1013.7
20260505064732 62 45 0.0 2.0 0.00 0.00 0.00 59 1013.8
20260505064231 62 45 0.0 2.0 0.00 0.00 0.00 60 1013.7
20260505063731 62 45 1.0 1.0 0.00 0.00 0.00 60 1013.8
20260505063231 62 45 0.0 2.0 0.00 0.00 0.00 59 1013.8
20260505062730 62 45 0.0 3.0 0.00 0.00 0.00 59 1013.8
20260505062230 61 45 0.0 2.0 0.00 0.00 0.00 59 1013.7
20260505061730 61 45 0.0 1.0 0.00 0.00 0.00 59 1013.7
20260505061230 61 45 0.0 2.0 0.00 0.00 0.00 58 1013.7
20260505060729 62 45 0.0 2.0 0.00 0.00 0.00 58 1013.8
20260505060229 61 45 0.0 1.0 0.00 0.00 0.00 59 1013.9
20260505055729 62 45 0.0 2.0 0.00 0.00 0.00 59 1013.9
20260505054728 61 45 0.0 1.0 0.00 0.00 0.00 61 1013.7
20260505054228 59 45 1.0 1.0 0.00 0.00 0.00 63 1013.7
20260505053727 58 45 0.0 1.0 0.00 0.00 0.00 64 1013.8
20260505053227 57 45 0.0 0.0 0.00 0.00 0.00 65 1013.8
20260505052727 55 45 0.0 0.0 0.00 0.00 0.00 66 1013.8
20260505052227 54 45 0.0 2.0 0.00 0.00 0.00 67 1013.8
20260505051726 54 45 0.0 4.0 0.00 0.00 0.00 67 1013.7
20260505051226 54 67 0.0 2.0 0.00 0.00 0.00 68 1013.7
20260505050726 53 22 0.0 0.0 0.00 0.00 0.00 69 1013.6
20260505050225 53 22 0.0 1.0 0.00 0.00 0.00 70 1013.6
20260505041723 48 45 0.0 2.0 0.00 0.00 0.00 77 1013.5
20260505041222 48 67 0.0 0.0 0.00 0.00 0.00 77 1013.5
20260505040722 47 45 0.0 2.0 0.00 0.00 0.00 79 1013.4
20260505040222 46 22 1.0 1.0 0.00 0.00 0.00 80 1013.3
20260505035721 45 0 0.0 0.0 0.00 0.00 0.00 80 1013.3
20260505035221 45 0 0.0 0.0 0.00 0.00 0.00 80 1013.2
20260505034721 45 0 0.0 1.0 0.00 0.00 0.00 80 1013.2
20260505034221 45 337 0.0 2.0 0.00 0.00 0.00 80 1013.2
20260505033720 45 337 0.0 2.0 0.00 0.00 0.00 79 1013.2
20260505033220 45 22 0.0 0.0 0.00 0.00 0.00 79 1013.1